When you browse on this site, cookies collect data to enhance your experience and personalize the content and advertising you see.
Visit our Privacy Policy to learn more. By continuing to use the site, you agree to this use of cookies and data.
  • In Latvia
  • List of Countries
  • For 7 days
  • Water Temperature
  • Weather Map
  • Weather Widgets
  • user-avatar
    Login

    Hourly Weather Mauritius

    Today, 16 December, Monday

    Time Temperature Precipitation Wind Pressure Humidity
    00:00 +26°C° 0 mm 3 mps 721 mmHg 80%
    01:00 +26°C° 0 mm 3 mps 720 mmHg 81%
    02:00 +26°C° 0 mm 3 mps 720 mmHg 81%
    03:00 +25°C° 0 mm 3 mps 720 mmHg 81%
    04:00 +25°C° 0 mm 3 mps 719 mmHg 82%
    05:00 +25°C° 0 mm 3 mps 720 mmHg 80%
    06:00 +26°C° 0 mm 3 mps 720 mmHg 78%
    07:00 +26°C° 0 mm 3 mps 720 mmHg 76%
    08:00 +27°C° 0 mm 3 mps 720 mmHg 71%
    09:00 +28°C° 0 mm 3 mps 720 mmHg 66%
    10:00 +29°C° 0 mm 3 mps 720 mmHg 62%
    11:00 +29°C° 0 mm 3 mps 720 mmHg 62%
    12:00 +29°C° 0 mm 3 mps 720 mmHg 62%
    13:00 +29°C° 0 mm 4 mps 719 mmHg 62%
    14:00 +29°C° 0 mm 3 mps 719 mmHg 63%
    15:00 +29°C° 0 mm 3 mps 719 mmHg 64%
    16:00 +29°C° 0 mm 3 mps 719 mmHg 65%
    17:00 +28°C° 0.1 mm 3 mps 719 mmHg 68%
    18:00 +28°C° 0.1 mm 2 mps 719 mmHg 71%
    19:00 +27°C° 0.1 mm 2 mps 719 mmHg 75%
    20:00 +27°C° 0.2 mm 2 mps 720 mmHg 76%
    21:00 +27°C° 0.2 mm 2 mps 720 mmHg 77%
    22:00 +27°C° 0.2 mm 1 mps 720 mmHg 78%
    23:00 +26°C° 0.6 mm 1 mps 720 mmHg 78%

    Tomorrow, 17 December, Tuesday

    Time Temperature Precipitation Wind Pressure Humidity
    00:00 +26°C° 0.6 mm 1 mps 719 mmHg 79%
    01:00 +26°C° 0.6 mm 1 mps 719 mmHg 80%
    02:00 +26°C° 0.9 mm 1 mps 719 mmHg 80%
    03:00 +26°C° 0.9 mm 1 mps 719 mmHg 81%
    04:00 +26°C° 0.9 mm 2 mps 719 mmHg 81%
    05:00 +26°C° 0 mm 2 mps 719 mmHg 80%
    06:00 +26°C° 0 mm 2 mps 719 mmHg 78%
    07:00 +27°C° 0 mm 2 mps 719 mmHg 77%
    08:00 +27°C° 0 mm 2 mps 720 mmHg 73%
    09:00 +28°C° 0 mm 2 mps 720 mmHg 69%
    10:00 +29°C° 0 mm 2 mps 720 mmHg 65%
    11:00 +29°C° 0.3 mm 2 mps 720 mmHg 66%
    12:00 +29°C° 0.3 mm 3 mps 720 mmHg 66%
    13:00 +29°C° 0.3 mm 3 mps 719 mmHg 67%
    14:00 +29°C° 0.7 mm 3 mps 719 mmHg 66%
    15:00 +29°C° 0.7 mm 3 mps 719 mmHg 66%
    16:00 +29°C° 0.7 mm 4 mps 719 mmHg 66%
    17:00 +28°C° 0.3 mm 3 mps 719 mmHg 68%
    18:00 +28°C° 0.3 mm 3 mps 720 mmHg 70%
    19:00 +28°C° 0.3 mm 3 mps 720 mmHg 72%
    20:00 +27°C° 0 mm 2 mps 720 mmHg 73%
    21:00 +27°C° 0 mm 2 mps 720 mmHg 74%
    22:00 +27°C° 0 mm 2 mps 721 mmHg 76%
    23:00 +27°C° 0 mm 2 mps 720 mmHg 77%

    Day after tomorrow, 18 December, Wednesday

    Time Temperature Precipitation Wind Pressure Humidity
    00:00 +26°C° 0 mm 1 mps 720 mmHg 78%
    01:00 +26°C° 0 mm 1 mps 720 mmHg 79%
    02:00 +26°C° 0 mm 1 mps 720 mmHg 79%
    03:00 +26°C° 0 mm 1 mps 720 mmHg 80%
    04:00 +26°C° 0 mm 1 mps 720 mmHg 80%
    05:00 +26°C° 0.1 mm 1 mps 720 mmHg 78%
    06:00 +26°C° 0.1 mm 1 mps 721 mmHg 76%
    07:00 +27°C° 0.1 mm 1 mps 721 mmHg 73%
    08:00 +28°C° 0 mm 2 mps 721 mmHg 68%
    09:00 +29°C° 0 mm 2 mps 721 mmHg 64%
    10:00 +30°C° 0 mm 2 mps 722 mmHg 59%
    11:00 +29°C° 0.1 mm 2 mps 721 mmHg 62%
    12:00 +29°C° 0.1 mm 3 mps 721 mmHg 64%
    13:00 +29°C° 0.1 mm 3 mps 721 mmHg 67%
    14:00 +28°C° 0.6 mm 3 mps 721 mmHg 70%
    15:00 +28°C° 0.6 mm 4 mps 720 mmHg 72%
    16:00 +27°C° 0.6 mm 4 mps 720 mmHg 74%
    17:00 +27°C° 0.5 mm 4 mps 720 mmHg 75%
    18:00 +27°C° 0.5 mm 4 mps 721 mmHg 76%
    19:00 +26°C° 0.5 mm 4 mps 721 mmHg 77%
    20:00 +26°C° 0 mm 4 mps 721 mmHg 77%
    21:00 +26°C° 0 mm 4 mps 722 mmHg 77%
    22:00 +26°C° 0 mm 4 mps 722 mmHg 78%
    23:00 +26°C° 0.1 mm 4 mps 722 mmHg 80%

    19 December, Thursday

    Time Temperature Precipitation Wind Pressure Humidity
    00:00 +25°C° 0.1 mm 4 mps 721 mmHg 82%
    01:00 +25°C° 0.1 mm 4 mps 721 mmHg 84%
    02:00 +25°C° 0.1 mm 4 mps 721 mmHg 83%
    03:00 +25°C° 0.1 mm 4 mps 721 mmHg 82%
    04:00 +25°C° 0.1 mm 5 mps 721 mmHg 81%
    05:00 +25°C° 0 mm 4 mps 721 mmHg 79%
    06:00 +25°C° 0 mm 4 mps 721 mmHg 76%
    07:00 +26°C° 0 mm 4 mps 722 mmHg 73%
    08:00 +26°C° 0 mm 4 mps 722 mmHg 70%
    09:00 +27°C° 0 mm 4 mps 722 mmHg 66%
    10:00 +28°C° 0 mm 4 mps 722 mmHg 63%
    11:00 +28°C° 0 mm 3 mps 722 mmHg 62%
    12:00 +29°C° 0 mm 3 mps 722 mmHg 60%
    13:00 +29°C° 0 mm 3 mps 721 mmHg 59%
    14:00 +29°C° 0 mm 3 mps 721 mmHg 59%
    15:00 +29°C° 0 mm 4 mps 721 mmHg 60%
    16:00 +29°C° 0 mm 4 mps 720 mmHg 60%
    17:00 +28°C° 0 mm 4 mps 721 mmHg 63%
    18:00 +27°C° 0 mm 4 mps 721 mmHg 66%
    19:00 +26°C° 0 mm 4 mps 721 mmHg 69%
    20:00 +26°C° 0 mm 4 mps 721 mmHg 70%
    21:00 +26°C° 0 mm 4 mps 721 mmHg 71%
    22:00 +26°C° 0 mm 4 mps 722 mmHg 73%
    23:00 +25°C° 0 mm 3 mps 721 mmHg 73%

    20 December, Friday

    Time Temperature Precipitation Wind Pressure Humidity
    00:00 +25°C° 0 mm 3 mps 721 mmHg 74%
    01:00 +25°C° 0 mm 3 mps 721 mmHg 75%
    02:00 +25°C° 0 mm 3 mps 721 mmHg 75%
    03:00 +25°C° 0 mm 3 mps 721 mmHg 75%
    04:00 +25°C° 0 mm 2 mps 720 mmHg 75%
    05:00 +25°C° 0 mm 3 mps 721 mmHg 73%
    06:00 +25°C° 0 mm 3 mps 721 mmHg 72%
    07:00 +26°C° 0 mm 3 mps 722 mmHg 70%
    08:00 +27°C° 0 mm 3 mps 722 mmHg 66%
    09:00 +28°C° 0 mm 3 mps 722 mmHg 62%
    10:00 +29°C° 0 mm 3 mps 722 mmHg 58%
    11:00 +29°C° 0 mm 3 mps 722 mmHg 58%
    12:00 +29°C° 0 mm 3 mps 722 mmHg 58%
    13:00 +30°C° 0 mm 4 mps 721 mmHg 58%
    14:00 +29°C° 0.1 mm 4 mps 721 mmHg 61%
    15:00 +29°C° 0.1 mm 4 mps 721 mmHg 64%
    16:00 +28°C° 0.1 mm 4 mps 720 mmHg 67%
    17:00 +28°C° 0.2 mm 4 mps 721 mmHg 69%
    18:00 +27°C° 0.2 mm 4 mps 721 mmHg 72%
    19:00 +27°C° 0.2 mm 4 mps 721 mmHg 75%
    20:00 +27°C° 0.3 mm 4 mps 721 mmHg 76%
    21:00 +26°C° 0.3 mm 5 mps 722 mmHg 78%
    22:00 +26°C° 0.3 mm 5 mps 722 mmHg 79%
    23:00 +26°C° 0.1 mm 5 mps 721 mmHg 79%

    21 December, Saturday

    Time Temperature Precipitation Wind Pressure Humidity
    00:00 +26°C° 0.1 mm 4 mps 721 mmHg 80%
    01:00 +26°C° 0.1 mm 4 mps 721 mmHg 80%
    02:00 +25°C° 0 mm 4 mps 721 mmHg 81%
    03:00 +25°C° 0 mm 4 mps 721 mmHg 82%
    04:00 +25°C° 0 mm 4 mps 721 mmHg 84%
    05:00 +26°C° 0 mm 4 mps 721 mmHg 82%
    06:00 +26°C° 0 mm 5 mps 721 mmHg 80%
    07:00 +26°C° 0 mm 5 mps 722 mmHg 78%
    08:00 +27°C° 0.1 mm 5 mps 722 mmHg 74%
    09:00 +28°C° 0.1 mm 5 mps 722 mmHg 71%
    10:00 +29°C° 0.1 mm 5 mps 722 mmHg 67%
    11:00 +29°C° 0.3 mm 6 mps 722 mmHg 66%
    12:00 +29°C° 0.3 mm 6 mps 722 mmHg 65%
    13:00 +29°C° 0.3 mm 6 mps 722 mmHg 64%
    14:00 +29°C° 0.5 mm 6 mps 722 mmHg 66%
    15:00 +29°C° 0.5 mm 6 mps 722 mmHg 68%
    16:00 +28°C° 0.5 mm 6 mps 721 mmHg 69%
    17:00 +28°C° 0.2 mm 6 mps 722 mmHg 72%
    18:00 +27°C° 0.2 mm 6 mps 722 mmHg 74%
    19:00 +27°C° 0.2 mm 6 mps 722 mmHg 77%
    20:00 +27°C° 0 mm 6 mps 723 mmHg 77%
    21:00 +27°C° 0 mm 6 mps 723 mmHg 77%
    22:00 +27°C° 0 mm 6 mps 723 mmHg 77%
    23:00 +26°C° 0.2 mm 6 mps 723 mmHg 78%
    Show more